DateTimeUTC,F1_A11,F1_S11,BsB_S11,BsG_S11,BsR_S11,BbsB_S11,BbsG_S11,BbsR_S11,BaB_A11,BaG_A11,BaR_A11,Tu_S11,T_S11,Uu_S11,U_S11,P_S11,T1_A11
2021-09-29T10:00:00Z,00000200,21000000,,,,,,,0000.15,0000.15,0000.02,16.9,23.8,00.3,00.2,0670.3,31.0
2021-09-29T10:01:00Z,00000200,21000000,,,,,,,-000.23,-000.12,0000.04,16.9,23.8,00.3,00.2,0670.3,31.0
2021-09-29T10:02:00Z,00000200,21000000,,,,,,,-000.01,-000.08,-000.02,16.9,23.9,00.3,00.2,0670.3,31.0
2021-09-29T10:03:00Z,00000200,61000000,,,,,,,0000.22,0000.45,-000.08,16.9,23.9,00.3,00.2,0670.3,31.0
2021-09-29T10:04:00Z,00000200,41000000,0001.55,0001.35,0000.72,0000.20,0000.39,0000.13,0000.36,0000.17,0000.21,17.1,23.7,00.4,00.3,0671.2,31.0
2021-09-29T10:05:00Z,00000200,01000000,0001.20,0000.96,0000.73,0000.24,0000.25,-000.12,0000.25,0000.37,0000.39,17.1,23.7,00.6,00.4,0671.3,30.9
2021-09-29T10:06:00Z,00000200,01000000,0001.23,0001.48,0000.80,0000.71,0000.43,-000.29,0000.37,0000.13,0000.39,17.1,23.6,00.6,00.4,0671.3,30.9
2021-09-29T10:07:00Z,00000200,01000000,0001.57,0001.43,0000.42,-000.03,0000.04,-000.19,0000.42,0000.13,-000.10,17.0,23.6,00.6,00.4,0671.3,30.9
2021-09-29T10:08:00Z,00000200,01000000,0002.19,0001.43,0000.91,0000.05,-000.07,-000.05,0000.30,0000.88,0000.53,17.0,23.6,00.5,00.4,0671.3,30.9
2021-09-29T10:09:00Z,00000200,01000000,0000.16,0001.26,0000.55,-000.32,0000.22,0000.25,0000.45,-000.09,0000.13,17.0,23.6,00.6,00.4,0671.3,30.9
2021-09-29T10:10:00Z,00000200,01000000,0001.12,0001.00,0000.62,0000.13,-000.16,-000.13,0000.41,0000.63,0000.46,16.9,23.5,00.6,00.4,0671.3,30.9
2021-09-29T10:11:00Z,00000200,01000000,0000.85,0001.64,0000.62,0000.02,0000.06,0000.22,0000.55,0000.28,0000.43,17.0,23.5,00.7,00.5,0671.3,30.9
2021-09-29T10:12:00Z,00000200,01000000,0001.85,0001.15,0000.59,0000.17,-000.09,-000.01,0000.64,0000.42,0000.28,17.0,23.5,00.7,00.5,0671.3,30.9
2021-09-29T10:13:00Z,00000200,01000000,0001.58,0001.06,0000.63,0000.37,0000.07,-000.08,0000.65,0000.76,0000.28,17.1,23.5,00.7,00.5,0671.3,30.9
2021-09-29T10:14:00Z,00000200,01000000,0001.62,0001.22,0000.60,0000.48,0000.19,0000.09,0000.10,0000.37,0000.60,17.1,23.6,00.7,00.5,0671.3,31.0
2021-09-29T10:15:00Z,00000200,01000000,0001.41,0001.18,0000.78,0000.87,0000.29,0000.24,0000.40,0000.30,-000.27,17.2,23.6,00.8,00.5,0671.3,31.0
2021-09-29T10:16:00Z,00000200,01000000,0001.66,0001.16,0000.59,0000.95,0000.12,0000.45,0000.33,0000.22,0000.49,17.2,23.7,00.7,00.5,0671.3,31.0
2021-09-29T10:17:00Z,00000200,01000000,0000.54,0001.25,0000.78,0000.26,0000.21,0000.09,0000.25,0000.35,0000.12,17.2,23.7,00.7,00.5,0671.3,31.0
2021-09-29T10:18:00Z,00000200,01000000,0001.25,0001.07,0000.39,-000.05,-000.14,-000.24,0000.41,-000.05,0000.09,17.2,23.6,00.8,00.5,0671.3,31.0
2021-09-29T10:19:00Z,00000200,01000000,0000.17,0001.23,0000.97,0000.28,-000.02,0000.10,0000.23,0000.15,0000.14,17.2,23.6,00.8,00.5,0671.3,30.9
2021-09-29T10:20:00Z,00000200,01000000,0001.79,0001.41,0000.73,-000.01,0000.29,0000.09,0000.21,0000.22,0000.27,17.1,23.6,00.8,00.5,0671.3,30.9
2021-09-29T10:21:00Z,00000200,01000000,0000.33,0001.41,0000.81,0000.34,0000.05,-000.28,0000.33,0000.46,0000.24,17.1,23.6,00.7,00.5,0671.2,30.9
2021-09-29T10:22:00Z,00000200,01000000,0001.86,0000.99,0000.41,0000.17,0000.26,-000.17,0000.48,0000.40,0000.19,17.0,23.6,00.8,00.5,0671.2,30.9
2021-09-29T10:23:00Z,00000200,01000000,0001.23,0000.74,0000.57,0000.75,0000.26,-000.05,0000.25,0000.50,0000.23,17.0,23.5,00.8,00.5,0671.2,30.9
2021-09-29T10:24:00Z,00000200,01000000,0001.05,0001.16,0000.57,0000.57,-000.05,-000.21,0000.62,-000.03,0000.42,16.9,23.5,00.9,00.6,0671.2,30.9
2021-09-29T10:25:00Z,00000200,01000000,0000.72,0000.95,0000.93,0000.42,0000.38,0000.34,0000.48,0000.67,0000.31,16.9,23.5,00.9,00.6,0671.2,30.9
2021-09-29T10:26:00Z,00000200,01000000,0000.90,0001.02,0000.45,0000.59,-000.29,0000.06,0000.49,0000.31,0000.54,16.9,23.5,00.9,00.6,0671.2,30.9
2021-09-29T10:27:00Z,00000200,01000000,0001.05,0001.24,0000.36,0000.34,0000.04,-000.03,0000.13,0000.67,0000.32,17.0,23.5,00.9,00.6,0671.2,30.9
2021-09-29T10:28:00Z,00000200,01000000,0001.14,0001.45,0000.63,0000.16,0000.23,0000.03,0000.47,-000.05,0000.23,17.1,23.5,00.9,00.6,0671.2,30.9
2021-09-29T10:29:00Z,00000200,01000000,0001.57,0000.80,0000.59,0000.61,0000.16,-000.02,0000.43,0000.72,0000.28,17.2,23.6,00.8,00.6,0671.2,31.0
2021-09-29T10:30:00Z,00000200,01000000,0001.85,0000.93,0000.43,0000.23,0000.27,0000.13,0000.53,0000.35,0000.12,17.2,23.6,01.0,00.6,0671.2,31.0
2021-09-29T10:31:00Z,00000200,01000000,0001.41,0001.24,0000.38,0000.30,0000.09,-000.01,0000.42,0000.41,0000.61,17.3,23.6,00.9,00.6,0671.2,31.0
2021-09-29T10:32:00Z,00000200,01000000,0001.49,0001.27,0000.43,0000.60,0000.08,0000.13,0000.14,-000.00,-000.32,17.3,23.6,00.9,00.6,0671.2,31.0
2021-09-29T10:33:00Z,00000200,01000000,0000.97,0000.89,0000.32,0000.31,0000.46,0000.16,0000.01,0000.21,0000.56,17.2,23.6,00.9,00.6,0671.2,31.0
2021-09-29T10:34:00Z,00000200,01000000,0000.80,0001.07,0000.54,0000.51,0000.13,0000.18,0000.63,0000.14,0000.10,17.2,23.6,01.0,00.6,0671.2,30.9
2021-09-29T10:35:00Z,00000200,01000000,0001.61,0000.77,0000.43,0000.36,0000.23,0000.24,0000.02,0000.34,0000.37,17.2,23.6,01.0,00.7,0671.2,30.9
2021-09-29T10:36:00Z,00000200,01000000,0001.41,0000.82,0000.34,0000.75,-000.08,-000.04,0000.28,0000.33,-000.11,17.1,23.6,01.0,00.7,0671.1,30.9
2021-09-29T10:37:00Z,00000200,01000000,0001.47,0000.95,0000.57,0000.07,0000.24,0000.13,0000.28,0000.23,0000.23,17.1,23.6,01.0,00.7,0671.1,30.9
2021-09-29T10:38:00Z,00000200,01000000,0001.61,0001.60,0000.81,-000.39,0000.07,0000.19,0000.46,0000.21,0000.13,17.0,23.5,01.0,00.7,0671.1,30.9
2021-09-29T10:39:00Z,00000200,01000000,0001.35,0001.20,0000.21,0000.26,0000.34,0000.10,0000.45,0000.29,0000.41,17.0,23.5,01.1,00.7,0671.1,30.9
2021-09-29T10:40:00Z,00000200,01000000,0001.40,0001.08,0000.66,0000.82,-000.00,-000.09,0000.50,0000.27,0000.13,17.0,23.5,01.0,00.7,0671.1,30.9
2021-09-29T10:41:00Z,00000200,01000000,0001.99,0001.01,0000.50,0000.87,0000.15,0000.23,0000.29,0000.68,0000.39,17.0,23.5,01.0,00.7,0671.1,30.9
2021-09-29T10:42:00Z,00000200,01000000,0001.39,0001.16,0000.65,0000.33,0000.23,0000.55,0000.06,0000.32,0000.21,17.1,23.5,01.0,00.7,0671.1,30.9
2021-09-29T10:43:00Z,00000200,01000000,0001.73,0001.45,0000.79,0000.53,0000.49,0000.14,0000.57,0000.42,0000.52,17.2,23.5,01.0,00.7,0671.1,30.9
2021-09-29T10:44:00Z,00000200,01000000,0002.10,0000.80,0000.45,0000.85,-000.23,0000.12,0000.70,0000.15,0000.19,17.2,23.6,01.0,00.7,0671.1,31.0
2021-09-29T10:45:00Z,00000200,01000000,0000.84,0001.10,0000.69,0000.44,0000.15,0000.03,0000.17,0000.57,0000.17,17.3,23.6,01.0,00.7,0671.1,31.0
2021-09-29T10:46:00Z,00000200,01000000,0000.63,0001.09,0000.23,0001.18,0000.53,-000.06,0000.31,0000.27,0000.14,17.4,23.6,01.0,00.6,0671.1,31.0
2021-09-29T10:47:00Z,00000200,01000000,0001.12,0001.09,0000.61,0000.65,0000.19,0000.12,0000.30,0000.31,0000.52,17.3,23.7,01.0,00.7,0671.1,30.9
2021-09-29T10:48:00Z,00000200,01000000,0001.27,0001.15,0000.46,0000.64,0000.45,-000.29,0000.47,0000.39,-000.11,17.3,23.6,01.0,00.7,0671.1,30.9
2021-09-29T10:49:00Z,00000200,01000000,0000.74,0000.97,0000.74,0000.80,0000.19,-000.15,-000.17,-000.01,0000.31,17.2,23.6,01.1,00.7,0671.1,30.9
2021-09-29T10:50:00Z,00000200,01000000,0001.11,0001.26,0000.68,0000.24,0000.11,0000.04,0000.37,0000.15,0000.25,17.2,23.6,01.1,00.7,0671.0,30.9
2021-09-29T10:51:00Z,00000200,01000000,0001.44,0001.23,0001.15,0000.77,0000.28,-000.07,0000.36,0000.55,-000.08,17.2,23.6,01.0,00.7,0671.0,30.9
2021-09-29T10:52:00Z,00000200,01000000,0001.61,0001.40,0000.76,0000.27,0000.52,-000.09,0000.47,-000.26,0000.21,17.1,23.6,00.9,00.6,0671.0,30.9
2021-09-29T10:53:00Z,00000200,01000000,0001.29,0001.37,0000.96,0000.96,0000.19,0000.14,0000.17,0000.58,0000.20,17.1,23.6,01.0,00.7,0671.0,30.9
2021-09-29T10:54:00Z,00000200,01000000,0001.54,0000.97,0000.83,0000.39,0000.26,0000.07,0000.48,0000.07,0000.58,17.0,23.5,01.0,00.7,0671.0,30.9
2021-09-29T10:55:00Z,00000200,01000000,0000.94,0001.14,0000.77,0000.34,-000.10,-000.08,0000.39,0000.59,0000.19,17.0,23.5,01.1,00.7,0671.0,30.9
2021-09-29T10:56:00Z,00000200,01000000,0001.51,0001.00,0000.68,0000.02,0000.15,-000.06,0000.63,0000.42,0000.35,17.0,23.5,01.0,00.7,0671.0,30.9
2021-09-29T10:57:00Z,00000200,41000000,,,,,,,-000.25,-000.03,-000.22,17.0,23.5,01.5,01.0,0671.0,30.9
2021-09-29T10:58:00Z,00000200,61000000,,,,,,,-000.15,0000.26,0000.22,16.8,23.7,00.9,00.6,0670.1,31.0
2021-09-29T10:59:00Z,00000200,21000000,,,,,,,0000.19,-000.21,-000.19,16.9,23.8,00.9,00.6,0670.1,31.0
